CW5306 Weather Reports


Display with metric or nautical units.
time (UTC)temp
F
wind
direction
speed
MPH
gust
MPH
rain 1hr
in
rain 24hr
in
rain mn
in
humidity
%
barometer
mb
20260901014231 83 57 6.0 19.0 0.00 0.17 0.02 71 1015.3
20260901014222 83 78 11.0 20.0 0.00 0.17 0.02 69 1015.3
20260901013221 83 84 10.0 20.0 0.00 0.17 0.02 71 1015.2
20260901012718 83 75 12.0 20.0 0.00 0.17 0.02 71 1015.4
20260901012219 82 74 6.0 15.0 0.00 0.17 0.02 72 1015.4
20260901011716 83 110 6.0 17.0 0.00 0.17 0.02 73 1015.4
20260901011216 83 100 6.0 21.0 0.00 0.17 0.02 73 1015.5
20260901010716 82 80 6.0 21.0 0.00 0.17 0.02 74 1015.3
20260901010215 82 62 12.0 23.0 0.00 0.17 0.02 72 1015.5
20260901005721 83 74 15.0 20.0 0.00 0.17 0.02 71 1015.6
20260901005715 82 88 9.0 23.0 0.00 0.17 0.02 72 1015.7
20260901004715 83 35 10.0 20.0 0.00 0.17 0.02 73 1015.6
20260901004446 83 67 9.0 19.0 0.00 0.17 0.02 72 1015.7
20260901003716 83 128 8.0 20.0 0.00 0.17 0.02 74 1015.4
20260901003222 83 42 6.0 20.0 0.00 0.17 0.02 72 1015.4
20260901003216 83 92 11.0 20.0 0.00 0.17 0.02 72 1015.3
20260901002447 83 81 12.0 23.0 0.00 0.17 0.02 71 1015.5
20260901001716 83 65 13.0 23.0 0.00 0.17 0.02 70 1015.6
20260901001217 83 64 8.0 23.0 0.00 0.17 0.02 71 1015.7
20260901000716 83 50 12.0 24.0 0.00 0.17 0.02 71 1015.9
20260901000215 83 64 14.0 24.0 0.00 0.17 0.02 71 1015.8
20260831235715 83 84 8.0 24.0 0.00 0.17 0.02 72 1015.9
20260831235215 83 59 11.0 20.0 0.00 0.17 0.02 71 1015.8
20260831234715 83 77 9.0 21.0 0.00 0.17 0.02 70 1016.1
20260831234216 83 50 13.0 21.0 0.00 0.17 0.02 71 1016.1
20260831233715 83 68 10.0 19.0 0.00 0.17 0.02 71 1016.2
20260831233216 83 75 15.0 20.0 0.00 0.17 0.02 70 1016.1
20260831232716 83 56 11.0 21.0 0.00 0.17 0.02 70 1016.3
20260831232216 83 41 12.0 21.0 0.00 0.17 0.02 70 1016.3
20260831231716 83 101 0.0 20.0 0.00 0.17 0.02 71 1016.4
20260831231216 83 90 14.0 21.0 0.00 0.17 0.02 71 1016.6
20260831230717 83 89 11.0 21.0 0.00 0.17 0.02 74 1016.7
20260831230215 83 98 7.0 23.0 0.00 0.17 0.02 71 1017.0
20260831225715 84 115 6.0 23.0 0.00 0.17 0.02 69 1016.8
20260831225215 83 90 6.0 19.0 0.00 0.17 0.02 70 1016.7
20260831224716 84 105 12.0 19.0 0.00 0.17 0.02 70 1016.9
20260831224215 84 75 11.0 23.0 0.00 0.17 0.02 71 1016.8
20260831223946 84 97 12.0 23.0 0.00 0.17 0.02 71 1017.1
20260831223215 84 114 8.0 17.0 0.00 0.17 0.02 70 1017.2
20260831222947 83 113 7.0 17.0 0.00 0.17 0.02 72 1017.1
20260831222215 84 110 8.0 20.0 0.00 0.17 0.02 70 1017.4
20260831221715 83 98 7.0 20.0 0.00 0.17 0.02 70 1017.2
20260831221215 84 73 10.0 17.0 0.00 0.17 0.02 71 1017.3
20260831220946 84 64 7.0 17.0 0.00 0.17 0.02 71 1017.3
20260831220215 84 88 10.0 19.0 0.00 0.17 0.02 71 1017.4
20260831215716 84 78 11.0 20.0 0.00 0.17 0.02 70 1017.3
20260831215216 83 82 6.0 20.0 0.00 0.17 0.02 71 1017.3
20260831214715 83 99 8.0 17.0 0.00 0.17 0.02 71 1017.5
20260831214216 83 87 6.0 17.0 0.00 0.17 0.02 71 1017.4
20260831213716 83 94 5.0 17.0 0.00 0.17 0.02 72 1017.6
20260831213216 83 69 6.0 20.0 0.00 0.17 0.02 71 1017.5
20260831212716 84 144 2.0 20.0 0.00 0.17 0.02 71 1017.7
20260831212447 83 132 8.0 20.0 0.00 0.17 0.02 71 1017.6
20260831211715 83 70 5.0 20.0 0.00 0.17 0.02 73 1017.8
20260831211215 83 102 6.0 21.0 0.00 0.17 0.02 72 1017.7
20260831210715 83 123 1.0 21.0 0.00 0.17 0.02 71 1017.8
20260831210215 83 91 10.0 19.0 0.00 0.17 0.02 71 1017.6
20260831205715 83 82 11.0 19.0 0.00 0.17 0.02 72 1017.5
20260831205447 83 91 11.0 19.0 0.00 0.17 0.02 72 1017.7
20260831204703 83 116 12.0 19.0 0.00 0.17 0.02 70 1017.5
20260831204203 82 105 12.0 17.0 0.00 0.17 0.02 71 1017.8
20260831203703 82 59 9.0 21.0 0.00 0.17 0.02 73 1017.8
20260831203204 82 128 10.0 21.0 0.00 0.17 0.02 71 1017.8
20260831202703 82 66 14.0 24.0 0.00 0.17 0.02 71 1017.9
20260831202203 82 100 6.0 24.0 0.00 0.17 0.02 74 1017.7
20260831201703 82 64 9.0 19.0 0.00 0.17 0.02 73 1017.7
20260831201204 82 118 9.0 24.0 0.00 0.17 0.02 73 1017.7
20260831200935 82 93 14.0 24.0 0.00 0.17 0.02 71 1017.5
20260831200436 82 120 13.0 23.0 0.00 0.17 0.02 72 1017.7
20260831195704 82 67 6.0 20.0 0.00 0.17 0.02 73 1017.5
20260831195204 82 83 11.0 21.0 0.00 0.17 0.02 72 1017.6
20260831194934 82 90 5.0 24.0 0.00 0.17 0.02 72 1017.6
20260831194204 81 76 15.0 21.0 0.00 0.17 0.02 73 1017.6
20260831193703 82 61 9.0 17.0 0.00 0.17 0.02 73 1017.4
20260831193205 82 94 7.0 19.0 0.00 0.17 0.02 75 1017.7
20260831192703 82 92 11.0 21.0 0.00 0.17 0.02 74 1017.7
20260831192203 81 138 8.0 21.0 0.00 0.17 0.02 74 1017.6
20260831191704 81 64 11.0 23.0 0.00 0.17 0.02 74 1017.5
20260831191204 81 76 4.0 23.0 0.00 0.17 0.02 75 1017.6
20260831190704 81 93 0.0 20.0 0.00 0.17 0.02 75 1017.8
20260831190203 81 101 5.0 20.0 0.00 0.17 0.02 76 1017.6
20260831185703 81 76 10.0 19.0 0.00 0.17 0.02 76 1017.5
20260831185203 81 90 8.0 19.0 0.00 0.17 0.02 75 1017.6
20260831184704 81 77 11.0 24.0 0.00 0.17 0.02 75 1017.6
20260831184204 80 72 5.0 24.0 0.00 0.17 0.02 75 1017.3
20260831183703 80 105 8.0 20.0 0.00 0.17 0.02 74 1017.5
20260831183311 80 96 8.0 23.0 0.00 0.17 0.02 75 1017.2
20260831183203 80 135 6.0 19.0 0.00 0.17 0.02 75 1017.5
20260831182935 80 88 11.0 20.0 0.00 0.17 0.02 74 1017.3
20260831181709 80 109 0.0 17.0 0.00 0.17 0.02 77 1017.1
20260831181703 80 55 11.0 23.0 0.00 0.17 0.02 75 1017.4
20260831180703 80 93 8.0 17.0 0.00 0.17 0.02 76 1017.4
20260831180203 80 61 0.0 17.0 0.00 0.17 0.02 76 1017.1
20260831175703 80 103 8.0 17.0 0.00 0.17 0.02 75 1017.2
20260831175203 79 46 6.0 19.0 0.00 0.17 0.02 76 1017.2
20260831174935 79 110 1.0 19.0 0.00 0.17 0.02 77 1017.2
20260831174204 79 52 9.0 19.0 0.00 0.17 0.02 77 1017.2
20260831173704 79 103 7.0 19.0 0.00 0.17 0.02 78 1017.1
20260831173153 79 101 14.0 19.0 0.00 0.17 0.02 78 1016.9
20260831172652 79 84 6.0 17.0 0.00 0.17 0.02 77 1016.9
20260831172152 79 92 0.0 21.0 0.00 0.17 0.02 77 1016.7
20260831171651 79 67 5.0 21.0 0.00 0.17 0.02 76 1017.0
20260831171152 79 96 8.0 21.0 0.00 0.17 0.02 77 1016.7
20260831170652 78 89 11.0 21.0 0.00 0.17 0.02 76 1016.5
20260831170424 78 123 10.0 19.0 0.00 0.17 0.02 76 1016.6
20260831165651 79 89 11.0 19.0 0.00 0.17 0.02 76 1016.6
20260831165139 79 88 9.0 21.0 0.00 0.17 0.02 77 1016.5
20260831164639 78 138 9.0 23.0 0.00 0.17 0.02 77 1016.6
20260831164140 78 75 11.0 23.0 0.00 0.17 0.02 78 1016.6
20260831163640 78 34 9.0 19.0 0.00 0.17 0.02 77 1016.5
20260831163140 78 107 8.0 19.0 0.00 0.17 0.02 78 1016.4
20260831162640 78 105 8.0 21.0 0.00 0.17 0.02 77 1016.5
20260831162359 78 122 9.0 21.0 0.00 0.17 0.02 77 1016.4
20260831161627 78 76 13.0 17.0 0.00 0.17 0.02 78 1016.4
20260831161116 78 66 8.0 24.0 0.00 0.17 0.02 78 1015.9
20260831160615 78 72 11.0 24.0 0.00 0.17 0.02 78 1016.3
20260831160117 78 114 6.0 24.0 0.00 0.17 0.02 76 1016.1
20260831155615 78 125 8.0 21.0 0.00 0.17 0.02 77 1016.1
20260831155115 78 83 10.0 24.0 0.00 0.17 0.02 78 1016.1
20260831154616 77 107 5.0 24.0 0.00 0.17 0.02 78 1016.0
20260831154123 77 63 8.0 20.0 0.00 0.17 0.02 79 1016.3
20260831154117 77 99 9.0 17.0 0.00 0.17 0.02 77 1016.1
20260831153115 77 86 7.0 20.0 0.00 0.17 0.02 78 1016.1
20260831152615 77 142 8.0 20.0 0.00 0.17 0.02 78 1016.4
20260831152116 77 89 9.0 23.0 0.00 0.17 0.02 78 1016.4
20260831151615 78 146 5.0 23.0 0.00 0.17 0.02 79 1016.2
20260831151353 77 125 8.0 21.0 0.00 0.17 0.02 78 1016.1
20260831151115 78 97 11.0 21.0 0.00 0.17 0.02 78 1016.1
20260831150115 77 85 13.0 21.0 0.00 0.17 0.02 78 1016.2
20260831145615 77 72 10.0 24.0 0.00 0.17 0.02 79 1016.1
20260831145115 77 85 9.0 24.0 0.00 0.17 0.02 79 1015.9
20260831144616 77 91 9.0 21.0 0.00 0.17 0.02 79 1015.8
20260831144116 77 80 11.0 21.0 0.00 0.17 0.02 80 1015.9
20260831143846 77 112 11.0 19.0 0.00 0.17 0.02 80 1016.0
20260831143116 77 28 7.0 19.0 0.00 0.17 0.02 80 1015.7
20260831142617 77 138 6.0 17.0 0.00 0.17 0.02 79 1015.8
20260831142115 77 76 10.0 19.0 0.00 0.17 0.02 78 1015.9
20260831141616 77 91 4.0 21.0 0.00 0.17 0.02 78 1015.8
20260831141116 77 110 14.0 21.0 0.00 0.17 0.02 78 1015.7
20260831140616 77 73 11.0 21.0 0.00 0.17 0.02 79 1015.6
20260831140116 78 101 9.0 25.0 0.00 0.17 0.02 80 1015.7
20260831135616 77 66 9.0 25.0 0.00 0.17 0.02 80 1015.6
20260831135115 78 53 12.0 21.0 0.00 0.17 0.02 80 1015.8
20260831134616 78 80 10.0 21.0 0.00 0.17 0.02 81 1015.8
20260831134347 78 84 16.0 20.0 0.00 0.17 0.02 82 1015.8
20260831133617 78 117 8.0 20.0 0.00 0.17 0.02 83 1015.9
20260831133116 78 71 12.0 21.0 0.00 0.17 0.02 82 1015.9
20260831132616 78 88 9.0 21.0 0.00 0.17 0.02 82 1015.7
20260831132115 78 28 13.0 21.0 0.00 0.17 0.02 81 1015.9
20260831131846 78 85 12.0 21.0 0.00 0.17 0.02 82 1015.8
20260831131115 78 110 12.0 21.0 0.00 0.17 0.02 83 1015.8
20260831130847 78 61 11.0 21.0 0.00 0.17 0.02 83 1015.8
20260831130347 77 93 12.0 19.0 0.00 0.17 0.02 83 1016.0
20260831125615 77 105 8.0 19.0 0.00 0.17 0.02 84 1016.0
20260831125116 77 123 9.0 13.0 0.00 0.17 0.02 86 1016.1
20260831124616 77 111 4.0 14.0 0.00 0.17 0.02 86 1016.2
20260831124116 77 100 6.0 14.0 0.00 0.17 0.02 86 1016.4
20260831123616 76 124 4.0 14.0 0.00 0.17 0.02 86 1016.3
20260831123116 76 135 6.0 15.0 0.00 0.17 0.02 85 1016.3
20260831122616 76 100 5.0 15.0 0.00 0.17 0.02 85 1016.6
20260831122116 76 127 5.0 15.0 0.00 0.17 0.02 85 1016.4
20260831121618 76 106 6.0 15.0 0.00 0.17 0.02 85 1016.6
20260831121346 76 137 5.0 16.0 0.00 0.17 0.02 85 1016.7
20260831120847 76 124 8.0 16.0 0.00 0.17 0.02 85 1016.8
20260831120116 76 102 6.0 17.0 0.00 0.17 0.02 85 1016.6
20260831115848 76 111 8.0 17.0 0.00 0.17 0.02 85 1016.8
20260831115348 76 69 5.0 16.0 0.00 0.17 0.02 85 1016.9
20260831114616 76 97 9.0 17.0 0.00 0.17 0.02 85 1016.9
20260831114116 77 76 5.0 17.0 0.00 0.17 0.02 86 1017.0
20260831113616 77 108 5.0 17.0 0.00 0.17 0.02 85 1016.8
20260831113346 77 110 5.0 16.0 0.00 0.17 0.02 85 1016.9
20260831112615 76 87 11.0 16.0 0.00 0.17 0.02 85 1017.0
20260831112115 76 87 10.0 20.0 0.00 0.17 0.02 85 1017.0
20260831111615 76 90 11.0 20.0 0.00 0.17 0.02 85 1017.1
20260831111116 76 113 8.0 15.0 0.01 0.17 0.02 86 1017.1
20260831110615 76 90 4.0 15.0 0.01 0.17 0.02 86 1017.1
20260831110116 76 80 8.0 20.0 0.02 0.17 0.02 86 1017.1
20260831105616 76 87 8.0 21.0 0.02 0.17 0.02 87 1017.5
20260831105115 75 109 12.0 21.0 0.02 0.17 0.02 87 1017.2
20260831104615 75 120 11.0 21.0 0.02 0.17 0.02 88 1017.4
20260831104115 74 114 7.0 17.0 0.02 0.17 0.02 89 1017.6
20260831103846 74 96 9.0 15.0 0.02 0.17 0.02 90 1017.6
20260831103118 73 137 6.0 16.0 0.02 0.17 0.02 90 1017.7
20260831102616 74 104 9.0 17.0 0.02 0.17 0.02 90 1017.9
20260831102115 74 157 8.0 21.0 0.02 0.17 0.01 90 1018.1
20260831101615 74 97 8.0 28.0 0.02 0.17 0.01 90 1018.1
20260831101115 75 85 12.0 28.0 0.01 0.17 0.01 90 1017.9
20260831100615 75 137 13.0 28.0 0.01 0.16 0.00 90 1017.8
20260831100115 75 142 13.0 28.0 0.03 0.16 0.00 89 1017.9
20260831095615 75 150 0.0 9.0 0.03 0.16 0.16 90 1017.6
20260831095115 74 115 2.0 10.0 0.03 0.16 0.16 90 1017.7
20260831094616 74 133 4.0 10.0 0.03 0.16 0.16 90 1018.0
20260831094116 74 140 0.0 9.0 0.03 0.16 0.16 90 1017.9
20260831093616 74 122 5.0 11.0 0.03 0.16 0.16 90 1017.8
20260831093116 74 131 0.0 11.0 0.03 0.16 0.16 90 1018.1
20260831092616 73 140 0.0 13.0 0.03 0.15 0.15 90 1018.3
20260831092347 73 120 3.0 14.0 0.03 0.15 0.15 90 1018.4
20260831091616 73 143 4.0 17.0 0.03 0.15 0.15 89 1018.5
20260831091347 73 58 14.0 20.0 0.03 0.15 0.15 88 1018.8
20260831090615 74 111 16.0 28.0 0.02 0.15 0.15 87 1018.5
20260831090115 75 92 8.0 28.0 0.00 0.13 0.15 86 1018.7
20260831085615 76 133 10.0 21.0 0.00 0.13 0.13 87 1018.7
20260831085115 76 123 10.0 16.0 0.00 0.13 0.13 88 1018.2
20260831084615 76 92 4.0 15.0 0.00 0.13 0.13 88 1018.1
20260831084115 76 116 10.0 15.0 0.02 0.13 0.13 88 1018.0
20260831083615 76 74 0.0 14.0 0.06 0.13 0.13 89 1018.1
20260831083115 76 77 6.0 14.0 0.06 0.13 0.13 89 1018.3
20260831082615 75 49 8.0 15.0 0.08 0.13 0.13 89 1018.2
20260831082116 75 72 6.0 15.0 0.09 0.13 0.13 89 1018.2
20260831081846 75 103 5.0 14.0 0.09 0.13 0.13 90 1018.3
20260831081117 74 88 5.0 15.0 0.09 0.13 0.13 90 1018.4
20260831080846 74 91 4.0 15.0 0.09 0.13 0.13 90 1018.4
20260831080115 74 104 1.0 14.0 0.09 0.13 0.13 90 1018.3
20260831075615 74 91 8.0 15.0 0.09 0.13 0.13 89 1018.4
20260831075116 74 99 8.0 20.0 0.09 0.13 0.13 89 1018.6
20260831074615 74 126 8.0 26.0 0.09 0.12 0.12 89 1018.4
20260831074115 75 67 5.0 26.0 0.07 0.11 0.11 87 1018.7
20260831073616 76 90 4.0 17.0 0.03 0.06 0.06 87 1018.2
20260831073115 77 114 9.0 20.0 0.03 0.06 0.06 86 1018.4
20260831072616 78 143 14.0 20.0 0.01 0.04 0.04 84 1018.4
20260831072347 78 75 10.0 17.0 0.00 0.03 0.03 83 1018.0
20260831071615 78 141 6.0 14.0 0.00 0.03 0.03 83 1018.2
20260831071115 78 108 6.0 17.0 0.00 0.03 0.03 83 1018.1
20260831070847 78 92 4.0 17.0 0.00 0.03 0.03 82 1018.3
20260831070347 78 96 8.0 17.0 0.00 0.03 0.03 82 1018.2
20260831065615 78 79 9.0 19.0 0.00 0.03 0.03 82 1017.9
20260831065115 78 90 9.0 21.0 0.00 0.03 0.03 82 1017.9
20260831064846 78 66 8.0 21.0 0.00 0.03 0.03 82 1018.0
20260831064115 78 108 9.0 17.0 0.00 0.03 0.03 82 1017.7
20260831063616 78 79 9.0 19.0 0.00 0.03 0.03 83 1017.7
20260831063116 77 66 9.0 17.0 0.00 0.03 0.03 83 1017.8
20260831062848 77 49 6.0 16.0 0.00 0.03 0.03 86 1017.6
20260831062116 77 54 7.0 16.0 0.00 0.03 0.03 86 1017.7
20260831061616 76 115 7.0 11.0 0.00 0.03 0.03 85 1017.5
20260831061115 77 136 6.0 16.0 0.00 0.03 0.03 85 1017.5
20260831060615 77 125 4.0 16.0 0.00 0.03 0.03 85 1017.4
20260831060347 77 50 4.0 14.0 0.01 0.03 0.03 86 1017.3
20260831055616 77 123 5.0 14.0 0.02 0.03 0.03 86 1017.5
20260831055115 77 85 6.0 15.0 0.02 0.03 0.03 86 1017.6
20260831054615 77 89 6.0 15.0 0.02 0.03 0.03 86 1017.5
20260831054115 76 103 7.0 14.0 0.02 0.03 0.03 86 1017.2
20260831053614 76 132 8.0 14.0 0.02 0.03 0.03 87 1017.3
20260831053114 76 127 4.0 15.0 0.02 0.03 0.03 87 1017.1
20260831052614 76 120 6.0 15.0 0.02 0.03 0.03 87 1017.2
20260831052114 76 124 0.0 14.0 0.02 0.03 0.03 88 1017.2
20260831051614 76 109 1.0 14.0 0.02 0.03 0.03 88 1017.0
20260831051114 76 55 5.0 11.0 0.02 0.03 0.03 88 1016.8
20260831050603 76 54 6.0 14.0 0.02 0.03 0.03 87 1016.9
20260831045833 77 131 9.0 17.0 0.00 0.02 0.02 84 1016.7
20260831045103 78 83 9.0 17.0 0.00 0.01 0.01 83 1017.0
20260831044602 77 64 6.0 20.0 0.00 0.01 0.01 83 1016.9
20260831044102 77 100 11.0 20.0 0.00 0.01 0.01 83 1016.8
20260831043602 77 98 11.0 17.0 0.00 0.01 0.01 84 1016.6
20260831043103 77 89 8.0 17.0 0.00 0.01 0.01 84 1016.6
20260831042834 78 58 7.0 21.0 0.00 0.01 0.01 85 1016.7
20260831042335 78 66 9.0 21.0 0.00 0.01 0.01 85 1016.6
20260831041839 78 46 5.0 21.0 0.01 0.01 0.01 82 1016.6
20260831041603 78 74 6.0 21.0 0.01 0.01 0.01 83 1016.5
20260831040602 78 96 4.0 23.0 0.01 0.01 0.01 83 1016.4
20260831035603 78 82 17.0 23.0 0.01 0.01 0.01 85 1016.5
20260831035103 78 92 12.0 23.0 0.01 0.01 0.01 85 1016.5
20260831034602 78 108 6.0 23.0 0.01 0.01 0.01 85 1016.4
20260831034103 78 107 14.0 21.0 0.00 0.01 0.01 85 1016.0
20260831033833 78 73 11.0 17.0 0.00 0.01 0.01 85 1015.9
20260831033102 78 74 12.0 17.0 0.00 0.01 0.01 86 1016.0
20260831032601 78 91 6.0 20.0 0.00 0.01 0.01 86 1015.9
20260831032103 78 30 12.0 21.0 0.00 0.01 0.01 86 1016.1
20260831031602 79 39 11.0 21.0 0.00 0.00 0.01 84 1016.2
20260831031059 80 82 10.0 19.0 0.00 0.00 0.00 80 1015.9
20260831030600 80 68 7.0 19.0 0.00 0.00 0.00 78 1016.1
20260831030100 80 94 9.0 19.0 0.00 0.00 0.00 77 1016.0
20260831025831 80 70 7.0 13.0 0.00 0.00 0.00 78 1016.0
20260831025101 80 135 7.0 15.0 0.00 0.00 0.00 78 1016.1
20260831024830 80 112 11.0 15.0 0.00 0.00 0.00 78 1016.0
20260831024059 80 79 4.0 17.0 0.00 0.00 0.00 78 1016.1
20260831023600 80 136 9.0 17.0 0.00 0.00 0.00 77 1016.0
20260831023059 80 54 5.0 14.0 0.00 0.00 0.00 77 1016.0
20260831022836 80 102 5.0 15.0 0.00 0.00 0.00 76 1016.2
20260831022559 80 90 6.0 14.0 0.00 0.00 0.00 76 1016.1
20260831021559 80 146 9.0 17.0 0.00 0.00 0.00 75 1016.1
20260831021058 80 139 5.0 24.0 0.00 0.00 0.00 74 1016.1
20260831020559 80 79 9.0 24.0 0.00 0.00 0.00 76 1016.5
20260831020059 80 115 10.0 21.0 0.00 0.00 0.00 76 1016.1
20260831015601 80 79 9.0 14.0 0.00 0.00 0.00 77 1016.2
20260831015046 80 62 7.0 15.0 0.00 0.00 0.00 76 1016.1